Home > Weather > Resolute Bay > Past weeks

Flag for Canada Past Weather in Resolute Bay, Nunavut, Canada — Yesterday and Last 2 Weeks

Now
41 °F

Mostly cloudy.


Feels Like: 32 °F
Forecast: 37 / 46 °F
Wind: 17 mph from Northeast

Location: Resolute

Current Time: Aug 26, 2016 at 12:10:55 AM

Latest Report: Aug 25, 2016 at 11:00 PM


Visibility: 15 mi

Pressure: 29.94 "Hg

Humidity: 87%

Dew Point: 37 °F

Location of Resolute BayLocation

Past Weather in Resolute Bay — Graph

°F

Resolute Bay Temperature Yesterday

Maximum temperature yesterday: 43 °F (at 3:00 PM)
Minimum temperature yesterday: 32 °F (at 12:00 AM)
Average temperature yesterday: 37 °F

High & Low Weather Summary for the Past Weeks

 TemperatureHumidityPressure
High50 °F (Aug 11, 3:00 PM)100% (Aug 11, 3:00 AM)30.12 "Hg (Aug 11, 3:00 AM)
Low28 °F (Aug 14, 4:00 AM)49% (Aug 15, 2:00 AM)29.47 "Hg (Aug 16, 3:00 PM)
Average37 °F88%29.85 "Hg
* Reported Aug 10 11:00 PM — Aug 25 11:00 PM, Resolute Bay, Weather by CustomWeather, © 2016

Note: Actual official high and low records may vary slightly from our data, if they occured in-between our weather recording intervals... More about our weather records

Advertising

Resolute Bay Weather History for the Previous 24 Hours

Scroll right to see more
 ConditionsComfort  
Time TempWeatherWind HumidityBarometerVisibility
11:00 PM
Thu, Aug 25
41 °FMostly cloudy.17 mph87%29.94 "Hg15 mi
10:00 PM39 °FMostly cloudy.16 mph93%29.95 "Hg15 mi
9:00 PM41 °FLight rain. Cloudy.15 mph87%29.95 "Hg12 mi
8:47 PM41 °FLight rain. Mostly cloudy.20 mph87%29.96 "Hg10 mi
8:00 PM41 °FLight rain. Mostly cloudy.22 mph93%29.95 "Hg6 mi
7:00 PM41 °FLight rain. Mostly cloudy.20 mph93%29.94 "Hg15 mi
6:00 PM41 °FLight rain. Mostly cloudy.22 mph93%29.94 "Hg10 mi
5:00 PM43 °FLight rain. Mostly cloudy.20 mph87%29.95 "Hg10 mi
4:00 PM41 °FLight rain. Overcast.20 mph93%29.96 "Hg10 mi
3:00 PM43 °FLight rain. Cloudy.16 mph87%29.96 "Hg12 mi
2:00 PM41 °FMore clouds than sun.16 mph87%29.96 "Hg15 mi
1:00 PM39 °FPartly sunny.18 mph81%29.98 "Hg15 mi
12:00 PM39 °FPartly sunny.15 mph81%29.99 "Hg15 mi
11:00 AM37 °FPartly sunny.7 mph87%29.99 "Hg15 mi
10:00 AM37 °FPartly sunny.29 mph87%29.98 "Hg15 mi
9:00 AM34 °FBroken clouds.28 mph93%30.00 "Hg15 mi
8:00 AM34 °FBroken clouds.28 mph93%30.01 "Hg15 mi
7:00 AM36 °FBroken clouds.28 mph87%30.01 "Hg15 mi
6:00 AM34 °FPartly sunny.23 mph93%30.02 "Hg15 mi
5:00 AM34 °FPartly cloudy.20 mph87%30.02 "Hg15 mi
4:00 AM32 °FScattered showers. Partly cloudy.21 mph93%30.03 "Hg15 mi
3:48 AM32 °FScattered showers. Partly cloudy.21 mph93%30.03 "Hg15 mi
3:00 AM32 °FPartly cloudy.22 mph93%30.04 "Hg15 mi
2:00 AM32 °FPassing clouds.22 mph87%30.05 "Hg15 mi
1:00 AM32 °FPassing clouds.22 mph87%30.06 "Hg15 mi
12:00 AM32 °FPartly cloudy.20 mph87%30.07 "Hg15 mi
Weather by CustomWeather, © 2016

See weather overviewHow to use our weather pages